Location: Abraham Lincoln Continuation High School
(33.9711°N, 117.3662°W)
Time: 14:54:53
(UTC+00:00)

MOS 1 - Pass Details

Date: 21 September 2020
Orbit: 878 x 891 km, 99.1° (Epoch: 29 October)

Event Time Altitude Azimuth Distance (km) Brightness Sun altitude
Exits shadow 03:53:46 62° 163° (SSE) 997 4.3 -26.4°
Maximum altitude 03:54:48 89° 73° (ENE) 896 4.2 -26.6°
Drops below altitude 10° 04:00:32 10° 347° (NNW) 2,564 7.1 -27.7°
Sets 04:02:56 0° 347° (NNW) 3,507 7.9 -28.1°
